FW7086 Weather Reports


Display with metric or nautical units.
time (UTC)temp
F
wind
direction
speed
MPH
gust
MPH
rain 1hr
in
rain 24hr
in
rain mn
in
humidity
%
barometer
mb
20260507103615 35 321 0.0 0.0 0.00 0.00 0.00 80 1016.5
20260507103112 34 321 0.0 0.0 0.00 0.00 0.00 80 1016.7
20260507102608 35 321 0.0 0.0 0.00 0.00 0.00 80 1016.5
20260507102104 35 321 0.0 0.0 0.00 0.00 0.00 80 1016.5
20260507101601 35 321 0.0 0.0 0.00 0.00 0.00 80 1016.7
20260507101056 35 254 0.0 0.0 0.00 0.00 0.00 79 1016.4
20260507100554 35 185 0.0 0.0 0.00 0.00 0.00 80 1016.7
20260507100052 35 185 0.0 0.0 0.00 0.00 0.00 80 1016.8
20260507095549 34 185 0.0 0.0 0.00 0.00 0.00 81 1016.5
20260507095046 34 185 0.0 0.0 0.00 0.00 0.00 80 1016.8
20260507094542 34 185 0.0 0.0 0.00 0.00 0.00 79 1016.8
20260507094039 34 185 0.0 0.0 0.00 0.00 0.00 78 1016.7
20260507093537 35 185 0.0 0.0 0.00 0.00 0.00 77 1016.8
20260507093035 35 185 0.0 0.0 0.00 0.00 0.00 77 1016.5
20260507092531 35 185 0.0 0.0 0.00 0.00 0.00 76 1016.7
20260507092028 35 185 0.0 0.0 0.00 0.00 0.00 76 1016.4
20260507091525 35 185 0.0 0.0 0.00 0.00 0.00 75 1016.4
20260507091021 35 185 0.0 0.0 0.00 0.00 0.00 75 1016.7
20260507090517 35 185 0.0 0.0 0.00 0.00 0.00 74 1016.7
20260507090014 36 185 0.0 0.0 0.00 0.00 0.00 73 1016.8
20260507085511 36 185 0.0 0.0 0.00 0.00 0.00 73 1016.7
20260507085008 37 185 0.0 0.0 0.00 0.00 0.00 72 1016.5
20260507084504 37 185 0.0 0.0 0.00 0.00 0.00 71 1016.8
20260507084001 38 185 0.0 0.0 0.00 0.00 0.00 70 1016.8
20260507083457 38 185 0.0 0.0 0.00 0.00 0.00 69 1016.8
20260507082954 38 307 0.0 0.0 0.00 0.00 0.00 69 1016.8
20260507082450 38 336 0.0 0.0 0.00 0.00 0.00 69 1016.7
20260507081947 38 331 0.0 0.0 0.00 0.00 0.00 68 1016.4
20260507081443 38 327 0.0 0.0 0.00 0.00 0.00 67 1016.8
20260507080940 38 330 0.0 0.0 0.00 0.00 0.00 67 1016.7
20260507080436 39 333 0.0 0.0 0.00 0.00 0.00 66 1016.8
20260507075931 39 294 1.0 1.0 0.00 0.00 0.00 66 1016.7
20260507075428 39 340 0.0 0.0 0.00 0.00 0.00 66 1016.7
20260507074925 39 306 0.0 0.0 0.00 0.00 0.00 66 1016.7
20260507074422 39 347 0.0 0.0 0.00 0.00 0.00 67 1016.7
20260507073920 39 345 0.0 0.0 0.00 0.00 0.00 65 1016.8
20260507073416 39 177 1.0 1.0 0.00 0.00 0.00 64 1016.8
20260507072913 39 29 0.0 0.0 0.00 0.00 0.00 65 1016.7
20260507072410 39 292 0.0 0.0 0.00 0.00 0.00 65 1016.8
20260507071908 39 345 0.0 0.0 0.00 0.00 0.00 66 1016.9
20260507071405 39 338 0.0 0.0 0.00 0.00 0.00 65 1017.0
20260507070900 39 336 0.0 0.0 0.00 0.00 0.00 65 1017.0
20260507070358 39 318 0.0 0.0 0.00 0.00 0.00 66 1017.0
20260507065855 39 350 0.0 0.0 0.00 0.00 0.00 66 1017.0
20260507065351 38 268 0.0 0.0 0.00 0.00 0.00 67 1017.1
20260507064849 37 350 0.0 0.0 0.00 0.00 0.00 70 1017.1
20260507064347 38 350 0.0 0.0 0.00 0.00 0.00 68 1017.1
20260507063845 38 342 0.0 0.0 0.00 0.00 0.00 68 1017.2
20260507063341 38 348 0.0 0.0 0.00 0.00 0.00 68 1017.1
20260507062838 38 350 0.0 0.0 0.00 0.00 0.00 68 1017.0
20260507062335 38 345 0.0 0.0 0.00 0.00 0.00 68 1017.1
20260507061833 39 345 0.0 0.0 0.00 0.00 0.00 67 1017.3
20260507061331 39 345 0.0 0.0 0.00 0.00 0.00 66 1017.3
20260507060829 39 345 0.0 0.0 0.00 0.00 0.00 65 1017.3
20260507060325 39 340 0.0 0.0 0.00 0.00 0.00 65 1017.3
20260507055822 39 350 0.0 0.0 0.00 0.00 0.00 66 1017.4
20260507055317 40 339 0.0 0.0 0.00 0.00 0.00 64 1017.3
20260507054814 39 312 0.0 0.0 0.00 0.00 0.00 65 1017.2
20260507054310 39 345 0.0 0.0 0.00 0.00 0.00 65 1017.2
20260507053808 40 7 0.0 0.0 0.00 0.00 0.00 64 1017.3
20260507053305 41 7 0.0 0.0 0.00 0.00 0.00 63 1017.0
20260507052804 41 320 0.0 0.0 0.00 0.00 0.00 62 1017.3
20260507052300 42 317 0.0 0.0 0.00 0.00 0.00 60 1017.1
20260507051759 42 282 0.0 0.0 0.00 0.00 0.00 57 1017.2
20260507051255 42 325 0.0 0.0 0.00 0.00 0.00 57 1017.2
20260507050752 42 309 0.0 0.0 0.00 0.00 0.00 57 1017.2
20260507050248 42 330 0.0 0.0 0.00 0.00 0.00 56 1017.4
20260507045745 43 328 0.0 0.0 0.00 0.00 0.00 56 1017.3
20260507045241 43 257 1.0 1.0 0.00 0.00 0.00 54 1017.2
20260507044739 43 332 0.0 0.0 0.00 0.00 0.00 54 1017.3
20260507044235 43 335 0.0 0.0 0.00 0.00 0.00 54 1017.2
20260507043731 44 185 1.0 1.0 0.00 0.00 0.00 53 1017.3
20260507043228 44 267 0.0 1.0 0.00 0.00 0.00 54 1017.2
20260507042725 44 340 0.0 0.0 0.00 0.00 0.00 53 1017.3
20260507042219 44 28 0.0 0.0 0.00 0.00 0.00 52 1017.1
20260507041717 45 9 0.0 0.0 0.00 0.00 0.00 51 1017.0
20260507041214 45 279 2.0 2.0 0.00 0.00 0.00 50 1017.2
20260507040711 45 323 0.0 1.0 0.00 0.00 0.00 51 1017.1
20260507040207 45 303 2.0 2.0 0.00 0.00 0.00 50 1017.0
20260507035703 45 2 0.0 0.0 0.00 0.00 0.00 50 1017.1
20260507035159 46 331 0.0 1.0 0.00 0.00 0.00 49 1017.2
20260507034656 45 281 1.0 1.0 0.00 0.00 0.00 49 1017.3
20260507034153 45 341 0.0 1.0 0.00 0.00 0.00 49 1017.2
20260507033652 46 327 1.0 1.0 0.00 0.00 0.00 48 1017.3
20260507033148 46 281 1.0 1.0 0.00 0.00 0.00 48 1017.3
20260507032646 46 304 1.0 3.0 0.00 0.00 0.00 48 1017.3
20260507032142 46 328 1.0 1.0 0.00 0.00 0.00 47 1017.3
20260507031639 47 306 1.0 1.0 0.00 0.00 0.00 46 1017.4
20260507031135 47 277 2.0 7.0 0.00 0.00 0.00 47 1017.3
20260507030632 47 339 1.0 2.0 0.00 0.00 0.00 46 1017.3
20260507030130 47 49 2.0 2.0 0.00 0.00 0.00 46 1017.1
20260507025627 47 312 2.0 2.0 0.00 0.00 0.00 45 1017.3
20260507025124 47 2 2.0 3.0 0.00 0.00 0.00 46 1017.2
20260507024622 47 309 3.0 4.0 0.00 0.00 0.00 46 1017.1
20260507024119 47 338 1.0 2.0 0.00 0.00 0.00 45 1017.2
20260507023614 47 353 1.0 2.0 0.00 0.00 0.00 45 1017.1
20260507023112 47 291 2.0 4.0 0.00 0.00 0.00 45 1017.0
20260507022609 48 268 0.0 1.0 0.00 0.00 0.00 45 1016.9
20260507022104 48 234 1.0 1.0 0.00 0.00 0.00 45 1016.8
20260507021600 48 318 2.0 4.0 0.00 0.00 0.00 44 1016.5
20260507021056 48 95 2.0 2.0 0.00 0.00 0.00 44 1016.5
20260507020555 48 77 3.0 6.0 0.00 0.00 0.00 44 1016.5
20260507020051 48 305 3.0 3.0 0.00 0.00 0.00 43 1016.4
20260507015549 48 297 4.0 4.0 0.00 0.00 0.00 42 1016.5
20260507015046 48 332 3.0 3.0 0.00 0.00 0.00 44 1016.3
20260507014543 48 301 4.0 6.0 0.00 0.00 0.00 43 1016.3
20260507014039 48 43 1.0 1.0 0.00 0.00 0.00 44 1016.3
20260507013536 49 37 3.0 3.0 0.00 0.00 0.00 43 1016.2
20260507013033 49 303 2.0 2.0 0.00 0.00 0.00 44 1016.2
20260507012530 49 297 1.0 1.0 0.00 0.00 0.00 44 1016.2
20260507012026 49 304 1.0 1.0 0.00 0.00 0.00 44 1016.3
20260507011524 49 306 2.0 2.0 0.00 0.00 0.00 43 1016.3
20260507011019 50 288 2.0 3.0 0.00 0.00 0.00 43 1016.3
20260507010514 50 305 1.0 2.0 0.00 0.00 0.00 43 1016.1
20260507010011 50 271 2.0 2.0 0.00 0.00 0.00 42 1016.0
20260507005508 50 232 2.0 2.0 0.00 0.00 0.00 42 1016.0
20260507005005 50 267 4.0 6.0 0.00 0.00 0.00 41 1016.0
20260507004502 51 344 4.0 7.0 0.00 0.00 0.00 41 1016.1
20260507003959 51 224 2.0 2.0 0.00 0.00 0.00 42 1015.7
20260507003454 51 233 3.0 4.0 0.00 0.00 0.00 41 1016.0
20260507002949 51 293 5.0 8.0 0.00 0.00 0.00 41 1015.9
20260507002446 51 277 4.0 4.0 0.00 0.00 0.00 41 1015.9
20260507001943 52 192 7.0 11.0 0.00 0.00 0.00 41 1015.7
20260507001439 52 331 2.0 2.0 0.00 0.00 0.00 40 1015.7
20260507000937 52 314 3.0 4.0 0.00 0.00 0.00 40 1015.7
20260507000435 53 320 4.0 7.0 0.00 0.00 0.00 39 1015.4
20260506235928 53 261 5.0 8.0 0.00 0.00 0.00 39 1015.5
20260506235426 53 293 5.0 7.0 0.00 0.00 0.00 40 1015.3
20260506234921 53 240 4.0 7.0 0.00 0.00 0.00 40 1015.3
20260506234419 53 356 6.0 9.0 0.00 0.00 0.00 39 1015.4
20260506233917 53 13 2.0 3.0 0.00 0.00 0.00 39 1015.3
20260506233413 53 278 6.0 9.0 0.00 0.00 0.00 40 1015.2
20260506232910 53 275 2.0 3.0 0.00 0.00 0.00 40 1015.1
20260506232406 54 323 1.0 2.0 0.00 0.00 0.00 40 1015.3
20260506231902 54 272 2.0 3.0 0.00 0.00 0.00 39 1015.1
20260506231400 54 347 6.0 7.0 0.00 0.00 0.00 39 1015.0
20260506230857 55 343 2.0 3.0 0.00 0.00 0.00 38 1015.1
20260506230353 54 315 3.0 4.0 0.00 0.00 0.00 39 1015.2
20260506225849 55 276 3.0 4.0 0.00 0.00 0.00 39 1014.8
20260506225347 55 294 2.0 3.0 0.00 0.00 0.00 38 1015.0
20260506224844 55 320 1.0 2.0 0.00 0.00 0.00 39 1014.9
20260506224341 54 340 2.0 3.0 0.00 0.00 0.00 39 1014.8
20260506223838 55 258 7.0 13.0 0.00 0.00 0.00 38 1015.1
20260506223333 55 318 4.0 4.0 0.00 0.00 0.00 38 1014.8
20260506222830 55 268 2.0 2.0 0.00 0.00 0.00 39 1015.1
20260506222326 55 8 1.0 2.0 0.00 0.00 0.00 39 1014.9
20260506221824 55 254 7.0 14.0 0.00 0.00 0.00 38 1014.8
20260506221321 55 278 5.0 7.0 0.00 0.00 0.00 38 1014.6
20260506220819 55 206 2.0 3.0 0.00 0.00 0.00 39 1014.7
20260506220319 55 19 2.0 2.0 0.00 0.00 0.00 38 1014.6
20260506215816 56 238 3.0 4.0 0.00 0.00 0.00 38 1014.6
20260506215312 58 235 4.0 6.0 0.00 0.00 0.00 36 1014.5
20260506214808 57 189 5.0 7.0 0.00 0.00 0.00 36 1014.6
20260506214305 56 285 2.0 3.0 0.00 0.00 0.00 37 1014.5
20260506213803 57 37 3.0 4.0 0.00 0.00 0.00 37 1014.4
20260506213300 56 272 3.0 4.0 0.00 0.00 0.00 38 1014.5
20260506212757 56 6 2.0 3.0 0.00 0.00 0.00 39 1014.7
20260506212253 58 158 2.0 3.0 0.00 0.00 0.00 38 1014.4
20260506211748 57 284 2.0 4.0 0.00 0.00 0.00 38 1014.3
20260506211245 57 340 8.0 13.0 0.00 0.00 0.00 37 1014.7
20260506210742 58 273 2.0 3.0 0.00 0.00 0.00 36 1014.4
20260506210239 60 97 2.0 3.0 0.00 0.00 0.00 34 1014.4
20260506205736 58 272 1.0 2.0 0.00 0.00 0.00 34 1014.2
20260506205231 58 178 4.0 6.0 0.00 0.00 0.00 33 1014.4
20260506204728 58 226 3.0 4.0 0.00 0.00 0.00 32 1014.4
20260506204225 59 326 8.0 13.0 0.00 0.00 0.00 32 1014.5
20260506203724 59 267 2.0 2.0 0.00 0.00 0.00 33 1014.3
20260506203221 58 252 3.0 3.0 0.00 0.00 0.00 33 1014.5
20260506202719 58 252 2.0 3.0 0.00 0.00 0.00 33 1014.6
20260506202215 58 139 1.0 2.0 0.00 0.00 0.00 34 1014.6
20260506201712 58 206 7.0 9.0 0.00 0.00 0.00 32 1014.6
20260506201209 58 222 3.0 3.0 0.00 0.00 0.00 33 1014.7
20260506200706 56 138 1.0 1.0 0.00 0.00 0.00 35 1014.8
20260506200203 56 235 2.0 3.0 0.00 0.00 0.00 34 1014.9
20260506195659 58 125 3.0 6.0 0.00 0.00 0.00 33 1015.0
20260506195155 58 238 3.0 3.0 0.00 0.00 0.00 35 1014.9
20260506194652 56 344 2.0 3.0 0.00 0.00 0.00 36 1015.0
20260506194148 57 307 2.0 4.0 0.00 0.00 0.00 36 1015.1
20260506193646 57 14 5.0 7.0 0.00 0.00 0.00 36 1015.2
20260506193143 56 254 3.0 6.0 0.00 0.00 0.00 37 1015.1
20260506192640 56 250 7.0 9.0 0.00 0.00 0.00 37 1015.1
20260506192136 56 16 1.0 2.0 0.00 0.00 0.00 37 1015.2
20260506191633 56 295 2.0 2.0 0.00 0.00 0.00 36 1015.0
20260506191129 56 357 1.0 2.0 0.00 0.00 0.00 37 1015.0
20260506190626 56 167 2.0 3.0 0.00 0.00 0.00 36 1015.2
20260506190123 56 299 2.0 4.0 0.00 0.00 0.00 36 1015.3
20260506185620 57 29 2.0 3.0 0.00 0.00 0.00 37 1015.2
20260506185116 58 222 2.0 3.0 0.00 0.00 0.00 36 1015.2
20260506184614 56 225 2.0 3.0 0.00 0.00 0.00 37 1015.2
20260506184111 55 296 5.0 7.0 0.00 0.00 0.00 37 1015.3
20260506183608 55 280 3.0 4.0 0.00 0.00 0.00 38 1015.2
20260506183103 56 311 3.0 3.0 0.00 0.00 0.00 38 1015.2
20260506182601 56 172 4.0 6.0 0.00 0.00 0.00 37 1015.1
20260506182058 55 276 2.0 3.0 0.00 0.00 0.00 37 1015.1
20260506181556 55 175 4.0 6.0 0.00 0.00 0.00 38 1015.1
20260506181053 55 227 3.0 3.0 0.00 0.00 0.00 37 1015.1
20260506180549 56 264 4.0 4.0 0.00 0.00 0.00 37 1015.0
20260506180046 56 270 2.0 3.0 0.00 0.00 0.00 37 1015.1
20260506175542 56 253 4.0 4.0 0.00 0.00 0.00 36 1015.2
20260506175039 56 160 1.0 1.0 0.00 0.00 0.00 37 1015.4
20260506174538 56 297 6.0 10.0 0.00 0.00 0.00 36 1015.3
20260506174033 55 312 4.0 8.0 0.00 0.00 0.00 37 1015.2
20260506173531 56 189 2.0 2.0 0.00 0.00 0.00 37 1015.2
20260506173028 55 335 5.0 6.0 0.00 0.00 0.00 36 1015.3
20260506172526 56 198 4.0 6.0 0.00 0.00 0.00 36 1015.3
20260506172021 56 169 3.0 6.0 0.00 0.00 0.00 38 1015.5
20260506171519 55 218 1.0 2.0 0.00 0.00 0.00 38 1015.4
20260506171017 55 25 4.0 6.0 0.00 0.00 0.00 36 1015.5
20260506170514 56 306 4.0 4.0 0.00 0.00 0.00 36 1015.5
20260506170012 55 270 4.0 4.0 0.00 0.00 0.00 36 1015.8
20260506165510 55 314 3.0 4.0 0.00 0.00 0.00 38 1015.5
20260506165005 57 227 4.0 9.0 0.00 0.00 0.00 36 1015.6
20260506164502 55 350 2.0 2.0 0.00 0.00 0.00 39 1015.6
20260506164000 55 66 2.0 2.0 0.00 0.00 0.00 38 1015.4
20260506163455 56 158 2.0 3.0 0.00 0.00 0.00 37 1015.5
20260506162950 55 359 1.0 1.0 0.00 0.00 0.00 37 1015.5
20260506162448 56 207 2.0 3.0 0.00 0.00 0.00 35 1015.3
20260506161945 56 294 2.0 3.0 0.00 0.00 0.00 36 1015.5
20260506161443 55 178 4.0 6.0 0.00 0.00 0.00 36 1015.4
20260506160940 55 290 2.0 2.0 0.00 0.00 0.00 35 1015.3
20260506160437 55 289 6.0 9.0 0.00 0.00 0.00 35 1015.5
20260506155935 54 286 3.0 4.0 0.00 0.00 0.00 37 1015.4
20260506155432 55 274 5.0 7.0 0.00 0.00 0.00 37 1015.3
20260506153554 53 223 2.0 2.0 0.00 0.00 0.00 37 1015.5
20260506153051 53 180 2.0 3.0 0.00 0.00 0.00 36 1015.6
20260506152548 54 269 1.0 2.0 0.00 0.00 0.00 36 1015.5
20260506152046 54 250 3.0 4.0 0.00 0.00 0.00 37 1015.4
20260506151544 55 5 2.0 3.0 0.00 0.00 0.00 36 1015.5
20260506151041 54 149 2.0 3.0 0.00 0.00 0.00 36 1015.6
20260506150537 54 75 2.0 3.0 0.00 0.00 0.00 36 1015.6
20260506150034 54 315 2.0 3.0 0.00 0.00 0.00 36 1015.4
20260506145531 54 234 2.0 3.0 0.00 0.00 0.00 37 1015.4
20260506145028 54 122 1.0 1.0 0.00 0.00 0.00 36 1015.5
20260506144525 53 20 3.0 3.0 0.00 0.00 0.00 37 1015.7
20260506144022 54 292 4.0 7.0 0.00 0.00 0.00 37 1015.7
20260506143520 54 283 1.0 1.0 0.00 0.00 0.00 38 1015.5
20260506143018 53 310 1.0 2.0 0.00 0.00 0.00 39 1015.7
20260506142515 54 303 2.0 3.0 0.00 0.00 0.00 37 1015.6
20260506142013 53 305 1.0 2.0 0.00 0.00 0.00 41 1015.5
20260506141511 53 310 2.0 3.0 0.00 0.00 0.00 40 1015.6
20260506141009 53 299 1.0 2.0 0.00 0.00 0.00 40 1015.4
20260506140506 53 233 1.0 1.0 0.00 0.00 0.00 40 1015.5
20260506140003 52 341 1.0 1.0 0.00 0.00 0.00 43 1015.4
20260506135500 53 194 0.0 2.0 0.00 0.00 0.00 41 1015.3
20260506134956 53 350 0.0 0.0 0.00 0.00 0.00 40 1015.4
20260506134452 53 272 0.0 1.0 0.00 0.00 0.00 44 1015.1
20260506133949 53 22 1.0 1.0 0.00 0.00 0.00 42 1015.1
20260506133446 52 0 0.0 0.0 0.00 0.00 0.00 46 1015.0
20260506132943 51 198 1.0 1.0 0.00 0.00 0.00 45 1014.9
20260506132440 51 165 0.0 1.0 0.00 0.00 0.00 45 1014.9
20260506131937 50 333 0.0 0.0 0.00 0.00 0.00 48 1014.9
20260506131434 50 173 2.0 2.0 0.00 0.00 0.00 49 1014.9
20260506130931 50 156 1.0 2.0 0.00 0.00 0.00 50 1015.0
20260506130427 50 25 0.0 0.0 0.00 0.00 0.00 51 1014.8
20260506125925 50 9 0.0 0.0 0.00 0.00 0.00 53 1014.8
20260506125423 49 19 0.0 0.0 0.00 0.00 0.00 53 1014.9
20260506124921 50 5 0.0 0.0 0.00 0.00 0.00 52 1014.6
20260506124418 50 26 0.0 0.0 0.00 0.00 0.00 53 1014.8
20260506123916 48 2 0.0 0.0 0.00 0.00 0.00 58 1014.5
20260506123414 48 350 0.0 0.0 0.00 0.00 0.00 62 1014.6
20260506122911 48 344 0.0 0.0 0.00 0.00 0.00 61 1014.5
20260506122408 48 9 0.0 0.0 0.00 0.00 0.00 61 1014.5
20260506121906 47 16 0.0 0.0 0.00 0.00 0.00 62 1014.3
20260506121403 47 204 0.0 0.0 0.00 0.00 0.00 64 1014.4
20260506120900 47 204 0.0 0.0 0.00 0.00 0.00 65 1014.3
20260506120357 46 331 0.0 0.0 0.00 0.00 0.00 66 1014.3
20260506115855 45 5 0.0 0.0 0.00 0.00 0.00 68 1014.4
20260506115353 45 8 0.0 0.0 0.00 0.00 0.00 69 1014.3
20260506114850 45 359 0.0 0.0 0.00 0.00 0.00 69 1014.4
20260506114348 44 359 0.0 0.0 0.00 0.00 0.00 69 1014.1
20260506113847 44 359 0.0 0.0 0.00 0.00 0.00 70 1014.1
20260506113343 43 359 0.0 0.0 0.00 0.00 0.00 71 1014.2
20260506112840 43 357 0.0 0.0 0.00 0.00 0.00 74 1014.1
20260506112337 42 357 0.0 0.0 0.00 0.00 0.00 75 1014.1
20260506111834 41 347 0.0 0.0 0.00 0.00 0.00 76 1014.2
20260506111333 41 347 0.0 0.0 0.00 0.00 0.00 75 1014.0
20260506110830 40 347 0.0 0.0 0.00 0.00 0.00 76 1014.0
20260506110327 40 347 0.0 0.0 0.00 0.00 0.00 76 1014.0
20260506105824 40 347 0.0 0.0 0.00 0.00 0.00 76 1013.9
20260506105320 39 347 0.0 0.0 0.00 0.00 0.00 76 1013.7
20260506104818 39 347 0.0 0.0 0.00 0.00 0.00 75 1013.8
20260506104315 40 347 0.0 0.0 0.00 0.00 0.00 74 1013.4